EHI
5 5 5 8 9 8 7 7 5 2 0 1 2 2 1 1 2 3 3 1 0 0 0 0 0 0 0 0 0 0 0 0 0 0 0 0 0 0
5 4 4 6 8 7 6 6 5 3 1 1 2 2 1 0 1 1 1 1 0 0 0 0 0 0 0 0 0 0 0 0 0 0 0 0 0 0
3 2 2 3 5 5 4 5 6 4 2 1 1 2 2 1 1 1 1 1 0 0 0 0 0 0 0 0 0 0 0 0 0 0 0 0 0 0
2 1 0 1 3 4 3 4 6 5 3 2 2 3 2 1 1 1 0 0 0 0 0 0 0 0 0 0 0 0 0 0 0 0 0 0 0 0
4 3 2 2 3 3 3 3 4 4 3 3 3 4 2 0 0 0 0 0 0 0 0 0 0 0 0 0 0 0 0 0 0 0 0 0 0 0
5 5 4 3 3 2 2 2 2 3 3 3 4 4 1 0 0 0 0 0 0 0 0 0 0 0 0 0 0 0 0 0 0 0 0 0 0 0
5 5 4 3 2 1 1 0 1 2 3 3 4 3 1 0 0 0 0 0 0 0 0 0 0 0 0 0 0 0 0 0 0 0 0 0 0 0
5 5 4 3 2 1 0 0 0 1 2 3 3 3 2 2 2 2 1 0 0 0 0 0 0 0 0 0 0 0 0 0 0 0 0 0 0 0
6 4 3 3 3 2 1 1 0 0 1 1 2 3 4 5 4 3 1 1 1 0 0 0 0 0 0 0 0 0 0 0 0 0 0 0 0 0
4 4 3 3 3 3 3 2 1 1 0 1 2 2 3 5 4 3 2 2 2 2 2 1 0 0 0 0 0 0 0 0 0 0 0 0 0 0
4 3 3 3 3 3 3 3 3 2 1 0 1 1 1 2 1 1 2 3 3 2 3 2 1 1 1 0 1 1 0 0 0 0 0 0 0 0
5 4 4 3 2 2 2 3 3 3 2 1 0 0 0 0 0 0 1 1 2 2 2 2 2 2 2 2 2 2 1 0 0 0 0 0 0 0
4 4 4 2 1 0 1 2 2 2 2 1 0 0 0 0 0 0 0 0 0 0 1 1 1 1 2 2 2 2 1 0 0 0 0 0 0 0
3 2 1 1 0 0 0 1 1 1 1 1 0 0 0 0 0 0 0 0 0 0 0 0 0 0 1 1 1 1 1 0 0 0 0 0 0 0
2 1 0 0 0 0 0 0 0 0 0 0 0 0 0 0 0 0 0 0 0 0 0 0 0 0 0 0 0 0 0 0 0 0 0 0 0 0
1 0 0 0 0 0 0 0 0 0 0 0 0 0 0 0 0 0 0 0 0 0 0 0 0 0 0 0 0 0 0 0 0 0 0 0 0 0
1 0 0 0 0 0 0 0 0 0 0 0 0 0 0 0 0 0 0 0 0 0 0 0 0 0 0 0 0 0 0 0 0 0 0 0 0 0
1 0 0 0 0 0 0 0 0 0 0 0 0 0 0 0 0 0 0 0 0 0 0 0 0 0 0 0 0 0 0 0 0 0 0 0 0 0
0 0 0 0 0 0 0 0 0 0 0 0 0 0 0 0 0 0 0 0 0 0 0 0 0 0 0 0 0 0 0 0 0 0 0 0 0 0
0 0 0 0 0 0 0 0 0 0 0 0 0 0 0 0 0 0 0 0 0 0 0 0 0 0 0 0 0 0 0 0 0 0 0 0 0 0
0 0 0 0 0 0 0 0 0 0 0 0 0 0 0 0 0 0 0 0 0 0 0 0 0 0 0 0 0 0 0 0 0 0 0 0 0 0
0 0 0 0 0 0 0 0 0 0 0 0 0 0 0 0 0 0 0 0 0 0 0 0 0 0 0 0 0 0 0 0 0 0 0 0 0 0
0 0 0 0 0 0 0 0 0 0 0 0 0 0 0 0 0 0 0 0 0 0 0 0 0 0 0 0 0 0 0 0 0 0 0 0 0 0
Wind_Speed
4 4 4 3 3 4 4 4 4 4 3 1 1 1 1 2 3 3 3 8 8 7 6 6 6 6 6 5 4 3 2 2 2 2 2 2 2 2
2 3 3 3 2 3 3 3 4 4 3 0 1 1 2 2 5 4 5 10 9 8 8 8 8 7 7 7 6 6 4 4 4 4 4 4 4 3
2 2 3 3 2 2 2 3 2 2 3 1 1 1 3 2 3 3 4 4 5 9 9 9 8 8 8 8 8 8 7 7 6 7 7 7 7 7
1 2 2 2 2 2 2 2 2 2 2 2 1 1 2 3 3 3 3 3 4 9 9 9 9 9 9 9 9 9 8 8 8 8 8 8 7 7
0 1 1 1 2 1 2 2 1 1 1 2 2 2 2 3 3 3 4 3 4 6 8 8 9 9 9 9 9 8 8 7 7 8 8 8 7 7
0 1 1 1 1 1 1 1 1 1 2 2 3 3 3 3 3 4 4 3 3 3 5 6 8 9 9 8 8 8 7 7 7 7 7 6 6 6
1 1 3 4 5 3 2 1 0 1 2 3 3 3 3 3 3 3 3 4 3 2 3 3 4 4 5 6 6 6 6 6 6 6 6 5 5 5
1 2 3 3 4 5 5 5 4 1 1 2 3 3 3 3 3 3 3 3 3 2 2 2 2 2 2 3 5 6 5 6 6 5 5 4 4 3
2 1 1 3 2 3 4 4 4 4 2 1 1 1 2 2 3 4 3 2 1 2 2 2 1 2 2 4 6 5 5 5 5 4 3 3 2 2
3 2 2 2 2 1 2 3 3 3 2 1 1 1 1 1 2 3 4 4 3 2 1 1 1 1 2 3 7 6 5 4 4 4 3 3 3 2
3 3 2 2 3 2 1 3 3 4 6 6 6 5 5 3 1 2 3 3 2 2 1 1 1 1 2 3 6 8 6 6 5 5 4 4 4 5
3 4 6 4 3 2 1 2 3 3 3 5 4 4 4 4 2 0 1 2 1 2 2 2 1 2 2 2 3 5 6 7 8 7 6 6 5 5
2 3 4 5 4 3 2 2 2 0 3 3 3 4 3 3 2 2 2 1 1 0 2 2 1 2 2 2 3 3 3 3 5 6 8 8 7 6
2 3 5 5 4 3 3 3 1 3 1 2 2 2 2 2 3 2 2 2 2 1 0 2 2 2 3 2 2 2 3 3 2 2 3 8 9 9
4 7 5 3 3 4 3 0 2 1 1 2 2 2 2 2 2 2 2 2 2 1 2 2 2 2 3 3 1 1 2 2 3 3 3 3 4 5
4 5 4 1 1 3 3 2 1 1 1 1 1 1 1 2 1 1 1 1 1 2 3 2 2 3 3 3 2 2 2 2 2 3 3 3 3 4
3 3 3 3 3 2 2 1 1 2 2 1 1 1 1 1 1 1 1 1 1 1 2 3 3 3 3 3 3 3 2 2 2 2 3 4 4 4
2 2 2 2 1 1 2 2 2 1 1 1 1 1 1 1 1 1 1 2 2 1 1 1 2 3 4 4 3 4 4 3 3 3 4 5 5 4
2 1 1 0 1 1 1 1 1 1 1 2 2 1 1 2 1 2 2 2 2 2 1 2 2 3 4 4 4 5 4 4 4 4 4 5 5 4
1 1 1 1 1 1 1 1 1 1 2 2 2 2 2 2 2 3 2 3 3 2 2 3 3 4 4 4 3 3 7 6 5 5 5 5 5 4
1 1 1 1 1 1 2 2 2 2 2 3 3 3 3 3 3 3 3 2 5 4 4 3 2 4 5 5 6 5 4 7 6 5 6 6 6 6
1 1 1 1 1 2 2 2 2 2 3 4 3 3 4 4 4 5 4 4 5 5 5 3 3 5 6 6 7 6 5 5 8 10 10 9 7 7
1 1 1 1 2 2 2 2 3 3 3 4 4 4 4 4 5 5 5 6 5 5 5 5 5 5 6 6 7 7 7 7 7 6 8 11 13 13
Wind_Direction
243 240 250 254 257 262 255 248 255 261 252 200 174 130 134 110 102 104 95 94 99 95 92 91 90 90 90 89 91 92 95 109 127 148 155 160 180 204
248 258 258 261 264 262 265 259 254 260 263 250 123 143 126 122 108 112 102 96 87 89 89 88 88 86 85 83 84 86 91 97 101 101 102 100 95 92
245 239 247 270 271 261 259 262 258 248 241 248 64 104 121 122 115 116 115 112 101 94 93 91 89 87 85 82 77 74 76 81 89 95 95 93 89 85
258 259 263 259 256 274 267 257 253 241 221 196 169 153 134 131 122 121 111 103 96 98 95 91 90 89 87 84 81 78 76 76 79 82 84 87 89 89
281 269 276 278 273 284 277 263 237 205 185 176 171 144 129 127 126 118 105 103 103 111 109 101 96 93 90 87 86 82 79 79 79 79 79 80 81 82
9 327 320 316 298 267 239 246 233 176 156 163 154 150 139 143 155 146 137 129 117 114 104 110 114 109 100 94 90 87 84 85 86 84 82 79 78 79
104 75 62 59 43 23 10 18 228 195 157 156 156 153 154 163 177 166 145 131 119 127 129 130 132 123 122 118 104 94 92 93 96 93 88 85 83 84
129 116 120 109 100 85 62 51 37 38 158 170 170 166 167 178 171 164 158 160 149 145 147 123 124 121 121 110 106 110 111 109 108 105 102 98 94 92
90 90 85 87 112 116 125 130 86 51 23 310 130 181 176 176 177 170 163 164 116 131 172 141 141 139 135 114 127 135 134 132 133 133 130 121 113 116
87 85 84 79 54 41 110 106 97 76 47 69 68 61 92 131 178 173 164 157 138 132 183 197 160 165 148 137 148 160 167 168 169 171 171 173 184 197
85 64 60 83 35 330 141 124 113 109 88 73 64 74 75 76 38 177 171 179 164 143 146 248 181 179 183 179 162 174 181 185 191 198 204 210 218 220
101 93 64 47 34 353 152 129 120 103 110 116 108 118 115 113 119 174 200 197 181 158 136 244 205 209 203 189 180 176 186 189 200 205 208 216 232 247
109 99 81 70 54 31 16 58 58 56 134 132 123 115 113 110 105 85 34 352 320 64 126 223 239 231 231 200 191 190 205 198 197 198 201 206 216 246
79 84 88 85 77 60 69 55 318 273 151 120 110 105 108 106 95 86 70 45 20 14 121 235 251 248 255 240 204 193 210 221 223 223 209 189 207 220
70 69 84 113 137 121 106 289 265 214 107 112 109 101 91 94 115 133 141 155 169 161 147 221 256 244 261 268 257 219 221 222 227 233 230 226 220 213
110 116 137 137 108 87 149 190 171 57 30 92 90 97 117 139 162 169 176 182 185 148 146 175 241 263 262 281 276 258 245 235 235 243 253 249 246 242
135 151 157 164 163 157 152 131 148 166 179 168 163 164 174 177 182 188 218 226 220 196 167 178 196 220 250 280 273 271 266 257 249 243 256 264 257 251
202 158 166 186 180 173 177 168 176 183 194 199 211 207 203 208 200 199 222 245 246 240 217 195 211 223 224 208 244 266 260 260 253 239 252 261 263 259
210 155 159 200 230 226 224 218 186 155 232 243 239 238 236 230 229 234 238 248 251 252 248 239 243 252 261 258 208 222 260 269 266 256 251 260 267 270
221 178 211 242 262 282 279 266 238 200 217 235 234 238 242 243 245 247 248 270 272 263 253 250 254 267 279 291 294 241 222 251 262 265 264 262 266 254
198 210 254 283 285 277 283 281 273 264 258 259 248 244 246 248 251 253 249 253 267 265 260 254 256 250 271 272 268 260 235 210 237 265 273 271 267 262
222 231 258 288 276 273 271 271 266 261 250 249 254 253 252 252 250 254 256 252 254 264 270 269 240 245 257 265 271 272 262 240 219 223 240 257 272 277
235 266 269 263 257 258 270 275 278 277 267 264 257 254 256 257 260 259 258 261 265 270 274 273 269 263 264 265 271 275 272 265 260 244 232 220 225 238